Date String (YYYY-MM-DD hh:mm:ss) UTC,Instrument flags,Ambient pressure (hPa),Sample flow (lpm),Bypass flow (lpm),Sample temperature (°C),Ambient temperature (°C),ASC tube jacket temperature (°C),LED temperature (°C),Box temperature (°C),Sample RH (%),Span deviation,Mass concentration (μg/m³),Mass concentration (μg/m³),Mass concentration (μg/m³)
DateTimeUTC,F1_M11,P_M11,Q1_M11,Q2_M11,T1_M11,T2_M11,T3_M11,T4_M11,T5_M11,U1_M11,ZSPAN_M11,X0_M11,X2_M11,X1_M11
2022-02-21 05:00:00,,0814.9,4.99,0.00,25.5,24.8,00.0,34.7,27.3,05.2,0000.0,0001.72,0001.04,0000.82
2022-02-21 05:01:00,,0814.9,5.00,0.00,25.5,24.8,00.0,34.7,27.3,05.3,0000.0,0001.69,0001.03,0000.82
2022-02-21 05:02:00,,0814.9,5.01,0.00,25.5,24.8,00.0,34.6,27.3,05.5,0000.0,0001.67,0001.03,0000.82
2022-02-21 05:03:00,,0814.9,4.99,0.00,25.5,24.8,00.0,34.6,27.2,05.7,0000.0,0001.76,0001.07,0000.83
2022-02-21 05:04:00,,0814.9,5.00,0.00,25.5,24.7,00.0,34.6,27.2,05.3,0000.0,0002.58,0001.09,0000.83
2022-02-21 05:05:00,,0814.8,5.01,0.00,25.5,24.7,00.0,34.6,27.3,05.2,0000.0,0002.69,0001.11,0000.84
2022-02-21 05:06:00,,0814.8,4.99,0.00,25.5,24.7,00.0,34.6,27.3,05.2,0000.0,0003.09,0001.11,0000.84
2022-02-21 05:07:00,,0814.8,4.99,0.00,25.5,24.7,00.0,34.6,27.3,05.2,0000.0,0003.30,0001.10,0000.82
2022-02-21 05:08:00,,0814.8,5.02,0.00,25.5,24.7,00.0,34.6,27.2,05.2,0000.0,0003.25,0001.08,0000.80
2022-02-21 05:09:00,,0814.8,5.00,0.00,25.5,24.7,00.0,34.6,27.3,05.1,0000.0,0003.16,0001.03,0000.78
2022-02-21 05:10:00,,0814.8,4.99,0.00,25.5,24.7,00.0,34.6,27.3,05.3,0000.0,0003.20,0001.01,0000.76
2022-02-21 05:11:00,,0814.8,5.02,0.00,25.5,24.7,00.0,34.6,27.2,05.3,0000.0,0003.50,0001.01,0000.76
2022-02-21 05:12:00,,0814.8,4.99,0.00,25.5,24.7,00.0,34.6,27.2,05.6,0000.0,0003.50,0001.02,0000.77
2022-02-21 05:13:00,,0814.7,5.00,0.00,25.5,24.7,00.0,34.6,27.2,05.9,0000.0,0003.51,0001.02,0000.78
2022-02-21 05:14:00,,0814.8,4.99,0.00,25.5,24.7,00.0,34.6,27.2,05.7,0000.0,0003.47,0001.01,0000.78
2022-02-21 05:15:00,,0814.8,5.00,0.00,25.5,24.7,00.0,34.6,27.2,05.5,0000.0,0002.63,0001.00,0000.78
2022-02-21 05:16:00,,0814.8,5.01,0.00,25.5,24.7,00.0,34.6,27.2,05.5,0000.0,0002.49,0000.99,0000.79
2022-02-21 05:17:00,,0814.7,4.99,0.00,25.5,24.7,00.0,34.6,27.2,05.5,0000.0,0002.27,0001.02,0000.80
2022-02-21 05:18:00,,0814.7,5.01,0.00,25.5,24.7,00.0,34.5,27.2,05.7,0000.0,0002.25,0001.04,0000.81
2022-02-21 05:19:00,,0814.7,5.00,0.00,25.5,24.7,00.0,34.5,27.2,05.4,0000.0,0002.21,0001.04,0000.83
2022-02-21 05:20:00,,0814.7,4.99,0.00,25.5,24.7,00.0,34.5,27.2,05.5,0000.0,0002.19,0001.05,0000.84
2022-02-21 05:21:00,,0814.7,5.00,0.00,25.4,24.7,00.0,34.5,27.2,05.5,0000.0,0002.18,0001.06,0000.86
2022-02-21 05:22:00,,0814.7,5.00,0.00,25.4,24.6,00.0,34.5,27.2,05.5,0000.0,0001.90,0001.07,0000.86
2022-02-21 05:23:00,,0814.7,5.00,0.00,25.4,24.6,00.0,34.5,27.2,05.5,0000.0,0002.48,0001.09,0000.86
2022-02-21 05:24:00,,0814.7,4.98,0.00,25.4,24.6,00.0,34.5,27.1,05.3,0000.0,0002.58,0001.08,0000.86
2022-02-21 05:25:00,,0814.7,5.01,0.00,25.4,24.6,00.0,34.5,27.1,05.3,0000.0,0002.56,0001.07,0000.86
2022-02-21 05:26:00,,0814.7,4.99,0.00,25.4,24.6,00.0,34.5,27.1,05.1,0000.0,0002.64,0001.09,0000.86
2022-02-21 05:27:00,,0814.7,5.02,0.00,25.4,24.6,00.0,34.5,27.1,05.2,0000.0,0002.71,0001.11,0000.85
2022-02-21 05:28:00,,0814.7,5.00,0.00,25.4,24.6,00.0,34.5,27.1,05.2,0000.0,0002.83,0001.09,0000.85
2022-02-21 05:29:00,,0814.7,4.99,0.00,25.4,24.5,00.0,34.5,27.1,05.1,0000.0,0002.71,0001.06,0000.84
2022-02-21 05:30:00,,0814.7,5.02,0.00,25.4,24.5,00.0,34.5,27.1,05.1,0000.0,0002.86,0001.08,0000.83
2022-02-21 05:31:00,,0814.7,4.99,0.00,25.4,24.5,00.0,34.5,27.1,05.1,0000.0,0003.14,0001.12,0000.83
2022-02-21 05:32:00,,0814.7,4.99,0.00,25.4,24.5,00.0,34.4,27.1,05.2,0000.0,0003.31,0001.13,0000.82
2022-02-21 05:33:00,,0814.7,4.99,0.00,25.3,24.5,00.0,34.4,27.1,05.1,0000.0,0003.47,0001.14,0000.81
2022-02-21 05:34:00,,0814.7,5.01,0.00,25.3,24.5,00.0,34.4,27.1,05.0,0000.0,0004.06,0001.14,0000.80
2022-02-21 05:35:00,,0814.7,4.99,0.00,25.3,24.5,00.0,34.4,27.1,05.0,0000.0,0004.78,0001.14,0000.79
2022-02-21 05:36:00,,0814.6,4.99,0.00,25.3,24.5,00.0,34.4,27.1,05.1,0000.0,0004.82,0001.14,0000.78
2022-02-21 05:37:00,,0814.8,5.01,0.00,25.3,24.5,00.0,34.4,27.1,05.2,0000.0,0004.74,0001.11,0000.77
2022-02-21 05:38:00,,0814.8,4.99,0.00,25.3,24.5,00.0,34.4,27.1,05.5,0000.0,0004.65,0001.09,0000.78
2022-02-21 05:39:00,,0814.9,5.01,0.00,25.3,24.5,00.0,34.4,27.1,05.5,0000.0,0005.00,0001.10,0000.79
2022-02-21 05:40:00,,0814.6,4.99,0.00,25.3,24.5,00.0,34.4,27.0,05.3,0000.0,0004.89,0001.16,0000.79
2022-02-21 05:41:00,,0814.7,4.99,0.00,25.3,24.5,00.0,34.4,27.0,05.2,0000.0,0004.94,0001.17,0000.79
2022-02-21 05:42:00,,0815.0,5.01,0.00,25.3,24.5,00.0,34.4,27.0,05.1,0000.0,0004.60,0001.13,0000.80
2022-02-21 05:43:00,,0815.0,4.98,0.00,25.3,24.4,00.0,34.4,27.0,05.1,0000.0,0004.53,0001.12,0000.80
2022-02-21 05:44:00,,0814.6,5.02,0.00,25.3,24.4,00.0,34.4,27.0,05.3,0000.0,0004.32,0001.12,0000.80
2022-02-21 05:45:00,,0814.5,5.00,0.00,25.2,24.4,00.0,34.3,27.0,05.4,0000.0,0004.40,0001.14,0000.81
2022-02-21 05:46:00,,0814.5,4.99,0.00,25.2,24.4,00.0,34.3,27.0,05.5,0000.0,0002.89,0001.19,0000.82
2022-02-21 05:47:00,,0814.4,5.01,0.00,25.2,24.4,00.0,34.3,27.0,05.6,0000.0,0002.96,0001.16,0000.83
2022-02-21 05:48:00,,0814.4,4.98,0.00,25.2,24.4,00.0,34.3,27.0,05.5,0000.0,0004.07,0001.18,0000.84
2022-02-21 05:49:00,,0814.4,5.01,0.00,25.2,24.4,00.0,34.3,27.0,05.5,0000.0,0004.06,0001.18,0000.85
2022-02-21 05:50:00,,0814.4,5.00,0.00,25.2,24.4,00.0,34.3,26.9,05.3,0000.0,0003.72,0001.16,0000.84
2022-02-21 05:51:00,,0814.4,4.99,0.00,25.2,24.4,00.0,34.3,27.0,05.0,0000.0,0003.43,0001.11,0000.83
2022-02-21 05:52:00,,0814.4,5.02,0.00,25.2,24.4,00.0,34.3,26.9,04.9,0000.0,0003.78,0001.09,0000.81
2022-02-21 05:53:00,,0814.4,4.98,0.00,25.1,24.3,00.0,34.3,26.9,05.0,0000.0,0003.79,0001.08,0000.81
2022-02-21 05:54:00,,0814.4,5.01,0.00,25.1,24.3,00.0,34.3,26.8,05.1,0000.0,0003.81,0001.08,0000.80
2022-02-21 05:55:00,,0814.4,5.00,0.00,25.1,24.3,00.0,34.2,26.8,05.6,0000.0,0003.84,0001.09,0000.80
2022-02-21 05:56:00,,0814.4,4.98,0.00,25.1,24.3,00.0,34.2,26.9,06.0,0000.0,0003.44,0001.09,0000.81
2022-02-21 05:57:00,,0814.4,5.00,0.00,25.1,24.3,00.0,34.2,26.9,05.8,0000.0,0003.37,0001.06,0000.82
2022-02-21 05:58:00,,0814.4,4.99,0.00,25.1,24.3,00.0,34.2,26.8,05.8,0000.0,0003.97,0001.10,0000.83
2022-02-21 05:59:00,,0814.3,5.01,0.00,25.1,24.3,00.0,34.2,26.8,05.9,0000.0,0002.97,0001.13,0000.83
